Time,TemperatureF,DewpointF,PressureIn,WindDirection,WindDirectionDegrees,WindSpeedMPH,WindSpeedGustMPH,Humidity,HourlyPrecipIn,Conditions,Clouds,dailyrainin,SoftwareType,DateUTC
2013-04-13 00:03:00,69.0,69.0,29.84,NE,53,3.0,-999.0,100,-99.99,,,-99.99,,2013-04-13 04:03:00,
2013-04-13 00:12:00,69.0,69.0,29.84,NE,53,3.0,-999.0,100,-99.99,,,-99.99,,2013-04-13 04:12:00,
2013-04-13 00:23:00,69.0,69.0,29.85,NNE,26,4.0,-999.0,100,-99.99,,,-99.99,,2013-04-13 04:23:00,
2013-04-13 00:33:00,70.0,70.0,29.85,NE,41,2.0,-999.0,100,-99.99,,,-99.99,,2013-04-13 04:33:00,
2013-04-13 00:42:00,70.0,70.0,29.85,NE,41,2.0,-999.0,100,-99.99,,,-99.99,,2013-04-13 04:42:00,
2013-04-13 00:53:00,70.0,70.0,29.85,NE,42,2.0,-999.0,100,-99.99,,,-99.99,,2013-04-13 04:53:00,
2013-04-13 01:03:00,69.0,69.0,29.85,ENE,77,2.0,-999.0,100,-99.99,,,-99.99,,2013-04-13 05:03:00,
2013-04-13 01:12:00,69.0,69.0,29.85,ENE,77,2.0,-999.0,100,-99.99,,,-99.99,,2013-04-13 05:12:00,
2013-04-13 01:22:00,69.0,69.0,29.85,East,86,2.0,-999.0,100,-99.99,,,-99.99,,2013-04-13 05:22:00,
2013-04-13 01:32:00,68.0,68.0,29.85,NE,46,1.0,-999.0,100,-99.99,,,-99.99,,2013-04-13 05:32:00,
2013-04-13 01:43:00,68.0,68.0,29.85,NE,46,1.0,-999.0,100,-99.99,,,-99.99,,2013-04-13 05:43:00,
2013-04-13 01:52:00,67.0,67.0,29.86,ENE,57,1.0,-999.0,100,-99.99,,,-99.99,,2013-04-13 05:52:00,
2013-04-13 02:02:00,66.0,66.0,29.86,ENE,68,2.0,-999.0,100,-99.99,,,-99.99,,2013-04-13 06:02:00,
2013-04-13 02:12:00,66.0,66.0,29.86,ENE,68,2.0,-999.0,100,-99.99,,,-99.99,,2013-04-13 06:12:00,
2013-04-13 02:24:00,66.0,66.0,29.86,SE,132,3.0,-999.0,100,-99.99,,,-99.99,,2013-04-13 06:24:00,
2013-04-13 02:35:00,66.0,66.0,29.87,NE,54,2.0,-999.0,100,-99.99,,,-99.99,,2013-04-13 06:35:00,
2013-04-13 02:49:00,66.0,66.0,29.87,NE,54,2.0,-999.0,100,-99.99,,,-99.99,,2013-04-13 06:49:00,
2013-04-13 03:24:00,65.0,37.0,29.87,ESE,106,1.0,-999.0,35,-99.99,,,-99.99,,2013-04-13 07:24:00,
2013-04-13 03:35:00,65.0,37.0,29.87,East,84,1.0,-999.0,35,-99.99,,,-99.99,,2013-04-13 07:35:00,
2013-04-13 03:45:00,65.0,37.0,29.87,East,84,1.0,-999.0,35,-99.99,,,-99.99,,2013-04-13 07:45:00,
2013-04-13 03:57:00,64.0,34.0,29.86,East,90,1.0,-999.0,33,-99.99,,,-99.99,,2013-04-13 07:57:00,
2013-04-13 04:06:00,64.0,34.0,29.87,East,99,1.0,-999.0,32,-99.99,,,-99.99,,2013-04-13 08:06:00,
2013-04-13 04:16:00,64.0,34.0,29.87,East,99,1.0,-999.0,32,-99.99,,,-99.99,,2013-04-13 08:16:00,
2013-04-13 04:25:00,63.0,28.0,29.87,SSE,153,1.0,-999.0,26,-99.99,,,-99.99,,2013-04-13 08:25:00,
2013-04-13 04:35:00,63.0,31.0,29.88,ESE,103,2.0,-999.0,30,-99.99,,,-99.99,,2013-04-13 08:35:00,
2013-04-13 04:45:00,63.0,31.0,29.88,ESE,103,2.0,-999.0,30,-99.99,,,-99.99,,2013-04-13 08:45:00,
2013-04-13 04:55:00,63.0,38.0,29.87,NE,52,3.0,-999.0,39,-99.99,,,-99.99,,2013-04-13 08:55:00,
2013-04-13 05:05:00,62.0,33.0,29.88,East,79,2.0,-999.0,33,-99.99,,,-99.99,,2013-04-13 09:05:00,
2013-04-13 05:15:00,62.0,33.0,29.88,East,79,2.0,-999.0,33,-99.99,,,-99.99,,2013-04-13 09:15:00,
2013-04-13 05:25:00,62.0,28.0,29.88,ESE,106,2.0,-999.0,27,-99.99,,,-99.99,,2013-04-13 09:25:00,
2013-04-13 05:37:00,61.0,20.0,29.88,East,89,3.0,-999.0,20,-99.99,,,-99.99,,2013-04-13 09:37:00,
2013-04-13 05:51:00,61.0,20.0,29.88,East,89,3.0,-999.0,20,-99.99,,,-99.99,,2013-04-13 09:51:00,
2013-04-13 06:05:00,61.0,28.0,29.89,East,95,3.0,-999.0,28,-99.99,,,-99.99,,2013-04-13 10:05:00,
2013-04-13 06:15:00,60.0,25.0,29.90,ESE,109,3.0,-999.0,26,-99.99,,,-99.99,,2013-04-13 10:15:00,
2013-04-13 06:25:00,60.0,25.0,29.90,ESE,109,3.0,-999.0,26,-99.99,,,-99.99,,2013-04-13 10:25:00,
2013-04-13 06:37:00,60.0,18.0,29.90,ESE,113,2.0,-999.0,19,-99.99,,,-99.99,,2013-04-13 10:37:00,
2013-04-13 06:47:00,60.0,18.0,29.90,ESE,113,2.0,-999.0,19,-99.99,,,-99.99,,2013-04-13 10:47:00,
2013-04-13 06:55:00,60.0,14.0,29.90,ESE,109,3.0,-999.0,16,-99.99,,,-99.99,,2013-04-13 10:55:00,
2013-04-13 07:06:00,59.0,16.0,29.92,ESE,119,1.0,-999.0,18,-99.99,,,-99.99,,2013-04-13 11:06:00,
2013-04-13 07:14:00,59.0,16.0,29.92,ESE,119,1.0,-999.0,18,-99.99,,,-99.99,,2013-04-13 11:14:00,
2013-04-13 07:24:00,59.0,24.0,29.93,East,98,1.0,-999.0,26,-99.99,,,-99.99,,2013-04-13 11:24:00,
2013-04-13 07:34:00,59.0,20.0,29.93,ESE,107,1.0,-999.0,22,-99.99,,,-99.99,,2013-04-13 11:34:00,
2013-04-13 07:45:00,59.0,20.0,29.93,ESE,107,1.0,-999.0,22,-99.99,,,-99.99,,2013-04-13 11:45:00,
2013-04-13 07:54:00,59.0,13.0,29.94,ENE,74,0.0,-999.0,16,-99.99,,,-99.99,,2013-04-13 11:54:00,
2013-04-13 08:15:00,59.0,13.0,29.96,East,100,1.0,-999.0,16,-99.99,,,-99.99,,2013-04-13 12:15:00,
2013-04-13 08:25:00,60.0,21.0,29.95,East,98,1.0,-999.0,22,-99.99,,,-99.99,,2013-04-13 12:25:00,
2013-04-13 08:36:00,60.0,29.0,29.96,SE,137,3.0,-999.0,31,-99.99,,,-99.99,,2013-04-13 12:36:00,
2013-04-13 08:47:00,60.0,29.0,29.96,SE,137,3.0,-999.0,31,-99.99,,,-99.99,,2013-04-13 12:47:00,
2013-04-13 08:56:00,61.0,31.0,29.96,East,94,1.0,-999.0,32,-99.99,,,-99.99,,2013-04-13 12:56:00,
2013-04-13 09:06:00,62.0,39.0,29.96,SSE,154,2.0,-999.0,43,-99.99,,,-99.99,,2013-04-13 13:06:00,
2013-04-13 09:15:00,62.0,39.0,29.96,SSE,154,2.0,-999.0,43,-99.99,,,-99.99,,2013-04-13 13:15:00,
2013-04-13 09:30:00,63.0,41.0,29.97,SSE,149,6.0,-999.0,44,-99.99,,,-99.99,,2013-04-13 13:30:00,
2013-04-13 09:48:00,64.0,43.0,29.97,South,173,5.0,-999.0,47,-99.99,,,-99.99,,2013-04-13 13:48:00,
2013-04-13 09:57:00,64.0,45.0,29.96,SSE,157,4.0,-999.0,50,-99.99,,,-99.99,,2013-04-13 13:57:00,
2013-04-13 10:05:00,65.0,47.0,29.97,SSW,213,5.0,-999.0,52,-99.99,,,-99.99,,2013-04-13 14:05:00,
2013-04-13 10:39:00,66.0,48.0,29.97,SSE,165,5.0,-999.0,53,-99.99,,,-99.99,,2013-04-13 14:39:00,
2013-04-13 10:47:00,66.0,48.0,29.97,SSE,165,5.0,-999.0,53,-99.99,,,-99.99,,2013-04-13 14:47:00,
2013-04-13 11:00:00,67.0,49.0,29.98,SSW,193,4.0,-999.0,52,-99.99,,,-99.99,,2013-04-13 15:00:00,
2013-04-13 11:05:00,67.0,49.0,29.98,South,171,3.0,-999.0,53,-99.99,,,-99.99,,2013-04-13 15:05:00,
2013-04-13 11:14:00,67.0,49.0,29.98,South,171,3.0,-999.0,53,-99.99,,,-99.99,,2013-04-13 15:14:00,
2013-04-13 11:29:00,68.0,50.0,29.98,WSW,242,3.0,-999.0,52,-99.99,,,-99.99,,2013-04-13 15:29:00,
2013-04-13 11:36:00,69.0,50.0,29.99,SW,229,3.0,-999.0,51,-99.99,,,-99.99,,2013-04-13 15:36:00,
2013-04-13 11:44:00,69.0,50.0,29.99,SW,229,3.0,-999.0,51,-99.99,,,-99.99,,2013-04-13 15:44:00,
2013-04-13 11:58:00,69.0,50.0,29.98,South,170,3.0,-999.0,50,-99.99,,,-99.99,,2013-04-13 15:58:00,
2013-04-13 12:07:00,69.0,50.0,29.99,SE,136,4.0,-999.0,50,-99.99,,,-99.99,,2013-04-13 16:07:00,
2013-04-13 12:15:00,69.0,50.0,29.99,SE,136,4.0,-999.0,50,-99.99,,,-99.99,,2013-04-13 16:15:00,
2013-04-13 12:25:00,69.0,49.0,30.00,SSW,193,5.0,-999.0,49,-99.99,,,-99.99,,2013-04-13 16:25:00,
2013-04-13 12:36:00,70.0,49.0,30.00,SSW,209,3.0,-999.0,48,-99.99,,,-99.99,,2013-04-13 16:36:00,
2013-04-13 12:46:00,70.0,49.0,30.00,SSW,209,3.0,-999.0,48,-99.99,,,-99.99,,2013-04-13 16:46:00,
2013-04-13 12:57:00,71.0,51.0,30.00,SW,236,3.0,-999.0,49,-99.99,,,-99.99,,2013-04-13 16:57:00,
2013-04-13 13:08:00,69.0,51.0,30.00,WNW,284,6.0,-999.0,52,-99.99,,,-99.99,,2013-04-13 17:08:00,
2013-04-13 13:21:00,69.0,51.0,30.00,WNW,284,6.0,-999.0,52,-99.99,,,-99.99,,2013-04-13 17:21:00,
2013-04-13 13:38:00,69.0,51.0,30.00,WSW,241,6.0,-999.0,52,-99.99,,,-99.99,,2013-04-13 17:38:00,
2013-04-13 13:44:00,69.0,51.0,30.00,WSW,241,6.0,-999.0,52,-99.99,,,-99.99,,2013-04-13 17:44:00,
2013-04-13 14:04:00,70.0,52.0,29.99,SW,234,6.0,-999.0,53,-99.99,,,-99.99,,2013-04-13 18:04:00,
2013-04-13 14:15:00,70.0,48.0,29.99,WNW,298,6.0,-999.0,46,-99.99,,,-99.99,,2013-04-13 18:15:00,
2013-04-13 14:25:00,69.0,39.0,29.99,WSW,257,6.0,-999.0,34,-99.99,,,-99.99,,2013-04-13 18:25:00,
2013-04-13 14:33:00,68.0,45.0,29.98,NNW,328,5.0,-999.0,44,-99.99,,,-99.99,,2013-04-13 18:33:00,
2013-04-13 14:42:00,68.0,45.0,29.98,NNW,328,5.0,-999.0,44,-99.99,,,-99.99,,2013-04-13 18:42:00,
2013-04-13 14:53:00,69.0,48.0,29.98,WSW,240,5.0,-999.0,48,-99.99,,,-99.99,,2013-04-13 18:53:00,
2013-04-13 15:03:00,68.0,47.0,29.98,WSW,258,6.0,-999.0,47,-99.99,,,-99.99,,2013-04-13 19:03:00,
2013-04-13 15:12:00,68.0,47.0,29.98,WSW,258,6.0,-999.0,47,-99.99,,,-99.99,,2013-04-13 19:12:00,
2013-04-13 15:22:00,68.0,48.0,29.98,WSW,242,5.0,-999.0,48,-99.99,,,-99.99,,2013-04-13 19:22:00,
2013-04-13 15:32:00,67.0,45.0,29.97,NW,304,8.0,-999.0,45,-99.99,,,-99.99,,2013-04-13 19:32:00,
2013-04-13 15:42:00,67.0,45.0,29.97,NW,304,8.0,-999.0,45,-99.99,,,-99.99,,2013-04-13 19:42:00,
2013-04-13 15:53:00,67.0,44.0,29.97,SW,236,7.0,-999.0,44,-99.99,,,-99.99,,2013-04-13 19:53:00,
2013-04-13 16:02:00,67.0,46.0,29.96,WSW,253,9.0,-999.0,46,-99.99,,,-99.99,,2013-04-13 20:02:00,
2013-04-13 16:12:00,67.0,46.0,29.96,WSW,253,9.0,-999.0,46,-99.99,,,-99.99,,2013-04-13 20:12:00,
2013-04-13 16:22:00,67.0,47.0,29.96,West,266,8.0,-999.0,48,-99.99,,,-99.99,,2013-04-13 20:22:00,
2013-04-13 16:32:00,67.0,47.0,29.96,West,280,7.0,-999.0,49,-99.99,,,-99.99,,2013-04-13 20:32:00,
2013-04-13 16:42:00,67.0,47.0,29.96,West,280,7.0,-999.0,49,-99.99,,,-99.99,,2013-04-13 20:42:00,
2013-04-13 16:52:00,67.0,47.0,29.96,WSW,241,8.0,-999.0,49,-99.99,,,-99.99,,2013-04-13 20:52:00,
2013-04-13 17:02:00,67.0,48.0,29.96,West,274,6.0,-999.0,50,-99.99,,,-99.99,,2013-04-13 21:02:00,
2013-04-13 17:12:00,67.0,48.0,29.96,West,274,6.0,-999.0,50,-99.99,,,-99.99,,2013-04-13 21:12:00,
2013-04-13 17:22:00,67.0,48.0,29.96,SW,229,5.0,-999.0,51,-99.99,,,-99.99,,2013-04-13 21:22:00,
2013-04-13 17:33:00,66.0,47.0,29.96,WSW,258,6.0,-999.0,50,-99.99,,,-99.99,,2013-04-13 21:33:00,
2013-04-13 17:43:00,66.0,47.0,29.96,WSW,258,6.0,-999.0,50,-99.99,,,-99.99,,2013-04-13 21:43:00,
2013-04-13 17:53:00,66.0,43.0,29.96,WSW,246,6.0,-999.0,43,-99.99,,,-99.99,,2013-04-13 21:53:00,
2013-04-13 18:03:00,66.0,40.0,29.96,WSW,249,6.0,-999.0,39,-99.99,,,-99.99,,2013-04-13 22:03:00,
2013-04-13 18:13:00,66.0,40.0,29.96,WSW,249,6.0,-999.0,39,-99.99,,,-99.99,,2013-04-13 22:13:00,
2013-04-13 18:22:00,67.0,40.0,29.96,WSW,249,3.0,-999.0,37,-99.99,,,-99.99,,2013-04-13 22:22:00,
2013-04-13 18:33:00,67.0,39.0,29.97,West,279,2.0,-999.0,36,-99.99,,,-99.99,,2013-04-13 22:33:00,
2013-04-13 18:42:00,67.0,39.0,29.97,West,279,2.0,-999.0,36,-99.99,,,-99.99,,2013-04-13 22:42:00,
2013-04-13 18:53:00,66.0,33.0,29.97,WNW,286,2.0,-999.0,29,-99.99,,,-99.99,,2013-04-13 22:53:00,
2013-04-13 19:02:00,66.0,27.0,29.98,West,275,3.0,-999.0,23,-99.99,,,-99.99,,2013-04-13 23:02:00,
2013-04-13 19:12:00,66.0,27.0,29.98,West,275,3.0,-999.0,23,-99.99,,,-99.99,,2013-04-13 23:12:00,
2013-04-13 19:22:00,65.0,15.0,29.98,WNW,296,3.0,-999.0,14,-99.99,,,-99.99,,2013-04-13 23:22:00,
2013-04-13 19:33:00,65.0,65.0,29.98,WSW,248,3.0,-999.0,100,-99.99,,,-99.99,,2013-04-13 23:33:00,
2013-04-13 19:42:00,65.0,65.0,29.98,WSW,248,3.0,-999.0,100,-99.99,,,-99.99,,2013-04-13 23:42:00,
2013-04-13 19:53:00,63.0,63.0,29.98,West,281,4.0,-999.0,100,-99.99,,,-99.99,,2013-04-13 23:53:00,
2013-04-13 20:32:00,62.0,62.0,30.00,West,266,1.0,-999.0,100,-99.99,,,-99.99,,2013-04-14 00:32:00,
2013-04-13 20:42:00,62.0,62.0,30.00,West,266,1.0,-999.0,100,-99.99,,,-99.99,,2013-04-14 00:42:00,
2013-04-13 20:52:00,62.0,62.0,30.00,West,266,1.0,-999.0,100,-99.99,,,-99.99,,2013-04-14 00:52:00,
2013-04-13 21:02:00,61.0,61.0,30.01,West,267,0.0,-999.0,100,-99.99,,,-99.99,,2013-04-14 01:02:00,
2013-04-13 21:12:00,61.0,61.0,30.01,West,267,0.0,-999.0,100,-99.99,,,-99.99,,2013-04-14 01:12:00,
2013-04-13 21:22:00,61.0,61.0,30.01,West,266,1.0,-999.0,100,-99.99,,,-99.99,,2013-04-14 01:22:00,
2013-04-13 21:32:00,61.0,61.0,30.02,West,267,1.0,-999.0,100,-99.99,,,-99.99,,2013-04-14 01:32:00,
2013-04-13 21:42:00,61.0,61.0,30.02,West,267,1.0,-999.0,100,-99.99,,,-99.99,,2013-04-14 01:42:00,
2013-04-13 21:52:00,61.0,61.0,30.02,West,267,1.0,-999.0,100,-99.99,,,-99.99,,2013-04-14 01:52:00,
2013-04-13 22:02:00,62.0,62.0,30.03,West,267,0.0,-999.0,100,-99.99,,,-99.99,,2013-04-14 02:02:00,
2013-04-13 22:12:00,62.0,62.0,30.03,West,267,0.0,-999.0,100,-99.99,,,-99.99,,2013-04-14 02:12:00,
2013-04-13 22:22:00,62.0,62.0,30.04,West,269,1.0,-999.0,100,-99.99,,,-99.99,,2013-04-14 02:22:00,
2013-04-13 22:32:00,62.0,62.0,30.04,West,269,1.0,-999.0,100,-99.99,,,-99.99,,2013-04-14 02:32:00,
2013-04-13 22:43:00,62.0,62.0,30.04,West,269,1.0,-999.0,100,-99.99,,,-99.99,,2013-04-14 02:43:00,
2013-04-13 22:53:00,62.0,62.0,30.04,West,279,1.0,-999.0,100,-99.99,,,-99.99,,2013-04-14 02:53:00,
2013-04-13 23:03:00,62.0,62.0,30.04,WNW,289,2.0,-999.0,100,-99.99,,,-99.99,,2013-04-14 03:03:00,
2013-04-13 23:12:00,62.0,62.0,30.04,WNW,289,2.0,-999.0,100,-99.99,,,-99.99,,2013-04-14 03:12:00,
2013-04-13 23:22:00,62.0,62.0,30.04,WNW,290,0.0,-999.0,100,-99.99,,,-99.99,,2013-04-14 03:22:00,
2013-04-13 23:33:00,62.0,62.0,30.04,WNW,290,0.0,-999.0,100,-99.99,,,-99.99,,2013-04-14 03:33:00,
2013-04-13 23:42:00,62.0,62.0,30.04,WNW,290,0.0,-999.0,100,-99.99,,,-99.99,,2013-04-14 03:42:00,
2013-04-13 23:53:00,62.0,62.0,30.03,WNW,290,1.0,-999.0,100,-99.99,,,-99.99,,2013-04-14 03:53:00,